Tracking 18852 objects as of 24-Nov-2017
HD Live streaming from Space Station
objects crossing your sky now

FENGYUN 1C DEB

Track FENGYUN 1C DEB now!
10-day predictions


NORAD ID: 30966
Int'l Code: 1999-025BBG
Perigee: 609.9 km
Apogee: 736.4 km
Inclination: 99.1 °
Period: 98.1 minutes
Semi major axis: 7044 km
RCS: 0.0111 m2 (small)
Launch date: May 10, 1999
Source: People's Republic of China (PRC)
Launch site: Taiyaun Space Center, China (TSC)

Note: This is SATELLITE DEBRIS
aabbcc
Your satellite tracking list
Your tracking list is empty




NASA's NSSDC Master Catalog

Two Line Element Set (TLE):
1 30966U 99025BBG 17327.17732847  .00005416  00000-0  88977-3 0  9996
2 30966  99.1233 297.2817 0089821  48.2499   9.2486 14.68449068567369
Source of the keplerian elements: AFSPC